{"data":{"norad_id":55281,"epoch":"2026-09-20T22:00:03.000096Z","epoch_age_seconds":56704,"freshness":"FRESH","line1":"1 55281U 23010N   26263.91670139  .00112570  00000+0  81723-2 0  9990","line2":"2 55281  69.9992 272.1722 0006130 259.3378 338.9427 15.03229667  5717","mean_motion":15.03229667,"eccentricity":0.000613,"inclination_deg":69.9992,"raan_deg":272.1722,"arg_perigee_deg":259.3378,"mean_anomaly_deg":338.9427,"bstar":0.0081723,"rev_number":571,"period_min":95.793745401114,"perigee_km":552.69403962215,"apogee_km":561.19645045457,"semimajor_km":6935.0822450384,"source":"CELESTRAK","updated_at":"2026-09-21T09:00:33.166576Z"}}